Weather History for Piney Island, NC

Change the Weather History Date:

Friday, March 28, 2014

  Actual Average (KMRH) Record (KMRH)
Temperature  
Mean Temperature 61 °F -  
Max Temperature 73 °F 65 °F 77 °F (1989)
Min Temperature 50 °F 44 °F 29 °F (1969)
Degree Days  
Heating Degree Days 4    
Growing Degree Days 11 (Base 50)    
Moisture  
Dew Point 53 °F    
Average Humidity 73    
Maximum Humidity 89    
Minimum Humidity 57    
Precipitation  
Precipitation 0.00 in - - ()
Sea Level Pressure  
Sea Level Pressure 30.26 in    
Wind  
Wind Speed 9 mph (South)    
Max Wind Speed 23 mph    
Max Gust Speed 36 mph    
Averages and records for this station are not official NWS values.
T = Trace of Precipitation, MM = Missing Value Source: NWS Daily Summary

Daily Weather History Graph

Daily Weather History Graph

Search for Another Location

Airport:

Trip Planner

Search our weather history database for the weather conditions in past years. The results will help you decide how hot, cold, wet, or windy it might be!

Date:

Astronomy

Mar. 28, 2014 Rise Set
Actual Time 6:58 AM EDT 7:23 PM EDT
Civil Twilight 6:32 AM EDT 7:49 PM EDT
Nautical Twilight 6:03 AM EDT 8:19 PM EDT
Astronomical Twilight 5:32 AM EDT 8:49 PM EDT
Moon 5:22 AM EDT (3/28) 5:22 PM EDT (3/28)
Length of Visible Light 13h 16m
Length of Day
12h 25m
Waning Crescent, 6% of the Moon is Illuminated
Mar 28
Waning Crescent
Mar 30
New
Apr 7
First Quarter
Apr 15
Full
Apr 22
Last Quarter

Hourly Weather History & Observations

Time (EDT) Temp. Dew Point Humidity Pressure Visibility Wind Dir Wind Speed Gust Speed Precip Events Conditions
12:56 AM 50.0 °F 46.0 °F 86% 30.36 in - SSE 6.9 mph - N/A   Clear
1:56 AM 52.0 °F 46.9 °F 83% 30.34 in - South 5.8 mph - N/A   Clear
2:56 AM 52.0 °F 46.9 °F 83% 30.30 in - SSE 6.9 mph - N/A   Clear
3:56 AM 52.0 °F 46.9 °F 83% 30.30 in - SSE 6.9 mph - N/A   Clear
4:56 AM 51.1 °F 46.0 °F 83% 30.31 in - South 3.5 mph - N/A   Clear
5:56 AM 52.0 °F 48.0 °F 86% 30.30 in - SSE 5.8 mph - N/A   Mostly Cloudy
6:56 AM 53.1 °F 48.9 °F 86% 30.30 in - South 4.6 mph - N/A   Clear
7:56 AM 55.0 °F 52.0 °F 89% 30.30 in - SSE 6.9 mph - N/A   Clear
8:56 AM 63.0 °F 55.0 °F 75% 30.30 in - South 8.1 mph - N/A   Clear
9:56 AM 66.9 °F 53.1 °F 61% 30.30 in - South 9.2 mph - N/A   Clear
10:56 AM 70.0 °F 55.9 °F 61% 30.30 in - South 17.3 mph 26.5 mph N/A   Clear
11:56 AM 72.0 °F 55.9 °F 57% 30.29 in - SSW 21.9 mph 28.8 mph N/A   Mostly Cloudy
12:56 PM 72.0 °F 57.0 °F 59% 30.26 in - South 18.4 mph 34.5 mph N/A   Scattered Clouds
1:56 PM 72.0 °F 55.9 °F 57% 30.24 in - South 17.3 mph 35.7 mph N/A   Mostly Cloudy
2:56 PM 71.1 °F 55.9 °F 59% 30.22 in - South 23.0 mph 31.1 mph N/A   Overcast
4:56 PM 71.1 °F 55.9 °F 59% 30.20 in - South 15.0 mph 24.2 mph N/A   Overcast
5:56 PM 69.1 °F 57.0 °F 65% 30.20 in - South 13.8 mph - N/A   Mostly Cloudy
6:56 PM 68.0 °F 57.0 °F 68% 30.21 in - South 9.2 mph - N/A   Overcast
7:56 PM 64.9 °F 57.0 °F 75% 30.21 in - South 5.8 mph - N/A   Mostly Cloudy
8:56 PM 64.9 °F 57.9 °F 78% 30.22 in - South 5.8 mph - N/A   Overcast
9:56 PM 66.0 °F 57.9 °F 75% 30.21 in - South 8.1 mph - N/A   Overcast
10:56 PM 66.0 °F 57.9 °F 75% 30.20 in - South 8.1 mph - N/A   Overcast
11:56 PM 66.0 °F 59.0 °F 78% 30.19 in - South 8.1 mph - N/A   Overcast